This is the latest recevied weather packets stored in our database for station/object KB1RMA-4. If no packets are shown the sender has not sent any weather packets the latest 10 day(s).
| Time | Temp. | Humidity | Pressure | Rain* | Wind** | Luminosity | Snow |
|---|---|---|---|---|---|---|---|
| 1788096828 | 22.78° C | 55% | 1019.8 hPa | 0 mm | - | 123 W/m² | - |
| 1788096523 | 22.78° C | 56% | 1019.5 hPa | 0 mm | - | 135 W/m² | - |
| 1788096219 | 22.78° C | 57% | 1019.5 hPa | 0 mm | - | 137 W/m² | - |
| 1788095918 | 22.22° C | 58% | 1019.7 hPa | 0 mm | - | 189 W/m² | - |
| 1788095619 | 21.67° C | 59% | 1019.8 hPa | 0 mm | - | 186 W/m² | - |
| 1788095313 | 21.11° C | 61% | 1019.6 hPa | 0 mm | - | 152 W/m² | - |
| 1788095009 | 20.56° C | 62% | 1019.6 hPa | 0 mm | - | 122 W/m² | - |
| 1788094708 | 20.56° C | 61% | 1019.9 hPa | 0 mm | - | 122 W/m² | - |
| 1788094404 | 20.56° C | 61% | 1019.8 hPa | 0 mm | - | 102 W/m² | - |
| 1788094101 | 20.56° C | 61% | 1019.9 hPa | 0 mm | - | 101 W/m² | - |
| 1788093796 | 20.56° C | 61% | 1019.8 hPa | 0 mm | - | 128 W/m² | - |
| 1788093493 | 20° C | 64% | 1020.1 hPa | 0 mm | - | 150 W/m² | - |
| 1788093189 | 20° C | 63% | 1019.9 hPa | 0 mm | - | 110 W/m² | - |
| 1788092887 | 20° C | 64% | 1020 hPa | 0 mm | - | 104 W/m² | - |
| 1788092581 | 19.44° C | 65% | 1020.2 hPa | 0 mm | - | 124 W/m² | - |
| 1788092271 | 19.44° C | 66% | 1020.3 hPa | 0 mm | - | 78 W/m² | - |
| 1788091970 | 18.89° C | 66% | 1020.2 hPa | 0 mm | - | 89 W/m² | - |
| 1788091666 | 18.89° C | 66% | 1020.1 hPa | 0 mm | - | 100 W/m² | - |
| 1788091361 | 18.89° C | 66% | 1020 hPa | 0 mm | - | 69 W/m² | - |
| 1788091058 | 18.89° C | 67% | 1020.3 hPa | 0 mm | - | 65 W/m² | - |
| 1788090753 | 18.33° C | 68% | 1020.3 hPa | 0 mm | - | 78 W/m² | - |
| 1788090450 | 18.33° C | 69% | 1020.3 hPa | 0 mm | - | 61 W/m² | - |
| 1788090150 | 17.78° C | 70% | 1020.3 hPa | 0 mm | - | 60 W/m² | - |
| 1788089846 | 17.22° C | 71% | 1020.3 hPa | 0 mm | - | 60 W/m² | - |
| 1788089545 | 16.67° C | 73% | 1020.3 hPa | 0 mm | - | 58 W/m² | - |
* Rain latest hour (hover to see other rain measurements)
** Current wind speed in m/s (hover to see current wind gust speed)